N172SP VOMM-VOMM

Flight info

Callsign N172SP
Flight time 0h 7m
Altitude 1500
Route VFR TRAFFIC PATTERN
Aircraft C172/L-VGD/A

Departure

Time 2026-05-01 11:39
Airport Chennai International Airport (VOMM)

Arrival

Time 2026-05-01 11:47
Airport Chennai International Airport (VOMM)
Time Latitude Longitude Altitude Speed Heading
2026-05-01 11:28 12.98509 80.16351 40 ft 0 kts 339°
2026-05-01 11:34 12.98499 80.16352 40 ft 7 kts 158°
2026-05-01 11:34 12.98467 80.16421 42 ft 18 kts 70°
2026-05-01 11:34 12.98525 80.16579 43 ft 28 kts 69°
2026-05-01 11:34 12.98583 80.16737 43 ft 18 kts 69°
2026-05-01 11:35 12.98635 80.16765 43 ft 8 kts 341°
2026-05-01 11:35 12.98720 80.16732 42 ft 16 kts 348°
2026-05-01 11:35 12.98782 80.16808 43 ft 16 kts 69°
2026-05-01 11:35 12.98827 80.16927 43 ft 20 kts 69°
2026-05-01 11:36 12.98882 80.17075 44 ft 23 kts 69°
2026-05-01 11:36 12.98932 80.17203 44 ft 14 kts 69°
2026-05-01 11:36 12.98974 80.17284 44 ft 12 kts 60°
2026-05-01 11:36 12.99008 80.17368 43 ft 14 kts 69°
2026-05-01 11:37 12.99056 80.17494 42 ft 23 kts 68°
2026-05-01 11:37 12.99117 80.17657 44 ft 20 kts 69°
2026-05-01 11:37 12.99185 80.17696 43 ft 2 kts 340°
2026-05-01 11:37 12.99195 80.17691 43 ft 1 kts 338°
2026-05-01 11:38 12.99222 80.17681 42 ft 6 kts 338°
2026-05-01 11:38 12.99283 80.17649 41 ft 12 kts 310°
2026-05-01 11:38 12.99255 80.17529 39 ft 31 kts 250°
2026-05-01 11:38 12.99120 80.17167 49 ft 76 kts 249°
2026-05-01 11:39 12.98905 80.16596 206 ft 90 kts 249°
2026-05-01 11:39 12.98683 80.15981 418 ft 92 kts 249°
2026-05-01 11:39 12.98460 80.15371 640 ft 93 kts 249°
2026-05-01 11:39 12.98313 80.14739 800 ft 95 kts 275°
2026-05-01 11:40 12.98639 80.14172 958 ft 94 kts 324°
2026-05-01 11:40 12.99238 80.13865 1039 ft 99 kts 335°
2026-05-01 11:40 12.99882 80.13696 1134 ft 96 kts
2026-05-01 11:40 13.00476 80.13995 1164 ft 97 kts 48°
2026-05-01 11:41 13.00814 80.14613 1130 ft 103 kts 65°
2026-05-01 11:41 13.01124 80.15286 1065 ft 105 kts 65°
2026-05-01 11:41 13.01419 80.15939 1073 ft 98 kts 64°
2026-05-01 11:41 13.01712 80.16563 1100 ft 96 kts 63°
2026-05-01 11:42 13.02012 80.17189 1068 ft 101 kts 65°
2026-05-01 11:42 13.02330 80.17846 1047 ft 103 kts 64°
2026-05-01 11:42 13.02648 80.18486 1112 ft 97 kts 62°
2026-05-01 11:42 13.02942 80.19124 1081 ft 102 kts 64°
2026-05-01 11:43 13.03263 80.19785 1041 ft 104 kts 62°
2026-05-01 11:43 13.03464 80.20477 958 ft 101 kts 91°
2026-05-01 11:43 13.03202 80.21111 878 ft 95 kts 132°
2026-05-01 11:44 13.02193 80.21767 825 ft 84 kts 148°
2026-05-01 11:44 13.01684 80.22070 852 ft 83 kts 152°
2026-05-01 11:44 13.01137 80.22146 822 ft 86 kts 199°
2026-05-01 11:44 13.00763 80.21699 716 ft 90 kts 255°
2026-05-01 11:45 13.00591 80.21088 598 ft 84 kts 249°
2026-05-01 11:45 13.00392 80.20558 582 ft 76 kts 248°
2026-05-01 11:45 13.00204 80.20071 510 ft 66 kts 248°
2026-05-01 11:45 13.00051 80.19656 359 ft 60 kts 248°
2026-05-01 11:46 12.99903 80.19273 273 ft 58 kts 251°
2026-05-01 11:46 12.99750 80.18855 220 ft 65 kts 248°
2026-05-01 11:46 12.99587 80.18417 107 ft 64 kts 248°
2026-05-01 11:46 12.99433 80.18005 55 ft 61 kts 249°
2026-05-01 11:47 12.99283 80.17604 42 ft 54 kts 249°
2026-05-01 11:47 12.99175 80.17319 40 ft 35 kts 248°
2026-05-01 11:47 12.99070 80.17039 40 ft 59 kts 249°
2026-05-01 11:47 12.98888 80.16562 178 ft 73 kts 247°
2026-05-01 11:48 12.98695 80.16066 340 ft 84 kts 248°
2026-05-01 11:48 12.98460 80.15471 487 ft 94 kts 248°
2026-05-01 11:48 12.98216 80.14866 729 ft 88 kts 246°
2026-05-01 11:48 12.98075 80.14259 865 ft 95 kts 282°
2026-05-01 11:49 12.98517 80.13799 1012 ft 96 kts 335°
2026-05-01 11:49 12.99139 80.13519 1085 ft 101 kts 337°
2026-05-01 11:49 12.99811 80.13387 1167 ft 99 kts 13°
2026-05-01 11:49 13.00350 80.13831 1168 ft 101 kts 57°
2026-05-01 11:50 13.00667 80.14450 1216 ft 97 kts 63°
2026-05-01 11:50 13.00971 80.15076 1182 ft 97 kts 63°
2026-05-01 11:50 13.01288 80.15687 1169 ft 95 kts 63°
2026-05-01 11:50 13.01576 80.16296 1135 ft 98 kts 64°
2026-05-01 11:51 13.01883 80.16909 1116 ft 98 kts 62°
2026-05-01 11:51 13.02202 80.17503 1155 ft 93 kts 62°
2026-05-01 11:51 13.02509 80.18121 1079 ft 101 kts 63°
2026-05-01 11:51 13.02828 80.18764 1049 ft 90 kts 65°
2026-05-01 11:52 13.03079 80.19324 997 ft 83 kts 69°
2026-05-01 11:52 13.03127 80.19911 900 ft 81 kts 105°
2026-05-01 11:52 13.02779 80.20312 871 ft 78 kts 150°
2026-05-01 11:52 13.02340 80.20567 909 ft 72 kts 152°
2026-05-01 11:53 13.01905 80.20818 926 ft 73 kts 148°
2026-05-01 11:53 13.01438 80.21084 852 ft 78 kts 160°
2026-05-01 11:53 13.00887 80.21165 700 ft 80 kts 187°
2026-05-01 11:53 13.00483 80.20850 606 ft 74 kts 247°
2026-05-01 11:54 13.00315 80.20361 526 ft 69 kts 249°
2026-05-01 11:54 13.00144 80.19907 447 ft 67 kts 248°
2026-05-01 11:54 12.99972 80.19454 345 ft 69 kts 249°
2026-05-01 11:54 12.99802 80.18996 252 ft 68 kts 249°
2026-05-01 11:55 12.99637 80.18550 141 ft 67 kts 249°
2026-05-01 11:55 12.99472 80.18108 55 ft 63 kts 249°
2026-05-01 11:55 12.99340 80.17755 41 ft 40 kts 249°
2026-05-01 11:55 12.99252 80.17524 39 ft 34 kts 246°
2026-05-01 11:56 12.99152 80.17258 40 ft 53 kts 248°
2026-05-01 11:56 12.98981 80.16805 132 ft 76 kts 247°
2026-05-01 11:56 12.98778 80.16271 281 ft 83 kts 250°
2026-05-01 11:56 12.98567 80.15681 458 ft 93 kts 249°
2026-05-01 11:57 12.98327 80.15031 596 ft 98 kts 249°
2026-05-01 11:57 12.98142 80.14392 784 ft 93 kts 270°
2026-05-01 11:57 12.98349 80.13803 972 ft 87 kts 306°
2026-05-01 11:57 12.98814 80.13393 1073 ft 93 kts 330°
2026-05-01 11:58 12.99426 80.13092 1134 ft 99 kts 342°
2026-05-01 11:58 13.00106 80.13155 1193 ft 100 kts 27°
2026-05-01 11:58 13.00838 80.14292 1208 ft 94 kts 64°
2026-05-01 11:59 13.01120 80.14882 1208 ft 92 kts 64°
2026-05-01 11:59 13.01404 80.15475 1209 ft 92 kts 64°
2026-05-01 11:59 13.01689 80.16070 1210 ft 92 kts 64°
2026-05-01 12:00 13.02257 80.17255 1209 ft 93 kts 64°
2026-05-01 12:00 13.02543 80.17852 1210 ft 93 kts 64°
2026-05-01 12:00 13.03145 80.19089 992 ft 101 kts 64°
2026-05-01 12:01 13.03318 80.19745 892 ft 93 kts 105°
2026-05-01 12:01 13.02871 80.20158 824 ft 88 kts 154°
2026-05-01 12:01 13.02364 80.20403 830 ft 76 kts 154°
2026-05-01 12:01 13.01900 80.20631 860 ft 72 kts 156°
2026-05-01 12:02 13.01408 80.20849 838 ft 82 kts 156°
2026-05-01 12:02 13.00844 80.20975 794 ft 87 kts 190°
2026-05-01 12:02 13.00403 80.20618 664 ft 82 kts 240°
2026-05-01 12:02 13.00205 80.20080 461 ft 79 kts 250°
2026-05-01 12:03 13.00017 80.19566 345 ft 75 kts 248°
2026-05-01 12:03 12.99832 80.19077 274 ft 73 kts 248°
2026-05-01 12:03 12.99644 80.18572 139 ft 75 kts 249°
2026-05-01 12:03 12.99470 80.18104 64 ft 66 kts 249°
2026-05-01 12:04 12.99308 80.17670 45 ft 61 kts 249°
2026-05-01 12:04 12.99172 80.17308 40 ft 48 kts 248°
2026-05-01 12:04 12.99044 80.16971 42 ft 64 kts 249°
2026-05-01 12:04 12.98862 80.16489 187 ft 76 kts 249°
2026-05-01 12:05 12.98671 80.15988 387 ft 77 kts 250°
2026-05-01 12:05 12.98276 80.14846 631 ft 96 kts 250°
2026-05-01 12:05 12.98124 80.14159 731 ft 100 kts 275°
2026-05-01 12:06 12.98438 80.13546 826 ft 98 kts 320°
2026-05-01 12:06 12.99022 80.13235 945 ft 93 kts 338°
2026-05-01 12:06 12.99623 80.13014 1065 ft 90 kts 350°
2026-05-01 12:06 13.00220 80.13158 1147 ft 91 kts 35°
2026-05-01 12:07 13.00605 80.13702 1161 ft 96 kts 65°
2026-05-01 12:07 13.00875 80.14349 1161 ft 100 kts 68°
2026-05-01 12:07 13.01140 80.15013 1159 ft 100 kts 68°
2026-05-01 12:07 13.01398 80.15663 1157 ft 96 kts 68°
2026-05-01 12:08 13.01646 80.16285 1158 ft 92 kts 68°
2026-05-01 12:08 13.01898 80.16908 1041 ft 95 kts 68°
2026-05-01 12:08 13.02117 80.17495 1083 ft 84 kts 68°
2026-05-01 12:08 13.02338 80.18071 1042 ft 91 kts 69°
2026-05-01 12:09 13.02571 80.18673 1070 ft 88 kts 68°
2026-05-01 12:09 13.02788 80.19263 1077 ft 92 kts 71°
2026-05-01 12:09 13.02730 80.19888 1020 ft 88 kts 122°
2026-05-01 12:09 13.02245 80.20274 927 ft 89 kts 154°
2026-05-01 12:10 13.01705 80.20562 881 ft 83 kts 153°
2026-05-01 12:10 13.00701 80.20927 752 ft 74 kts 193°
2026-05-01 12:10 13.00350 80.20555 522 ft 76 kts 254°
2026-05-01 12:11 13.00042 80.19617 349 ft 65 kts 245°
2026-05-01 12:11 12.99869 80.19179 271 ft 69 kts 249°
2026-05-01 12:11 12.99697 80.18718 159 ft 68 kts 249°
2026-05-01 12:12 12.99532 80.18273 67 ft 65 kts 249°
2026-05-01 12:12 12.99394 80.17899 42 ft 42 kts 248°
2026-05-01 12:12 12.99310 80.17680 41 ft 19 kts 240°
2026-05-01 12:12 12.99252 80.17668 42 ft 0 kts 168°
2026-05-01 12:13 12.99249 80.17669 42 ft 1 kts 160°
2026-05-01 12:13 12.99197 80.17699 43 ft 4 kts 118°
2026-05-01 12:13 12.99216 80.17745 44 ft 15 kts 70°
2026-05-01 12:13 12.99257 80.17855 45 ft 9 kts 70°
2026-05-01 12:14 12.99235 80.17875 45 ft 11 kts 159°
2026-05-01 12:14 12.99187 80.17894 46 ft 0 kts 160°